Greenville, ME

10:11 PM EST on November 23, 2017 (GMT -0500)
Greenville

Weather History for KGNR - July, 2013

Change the Weather History Date:

Wednesday, July 24, 2013

  Actual Average (KMLT) Record (KMLT)
Temperature  
Mean Temperature 62 °F -  
Max Temperature 73 °F 78 °F 94 °F (1952)
Min Temperature 53 °F 56 °F 42 °F (1923)
Degree Days  
Heating Degree Days 3    
Growing Degree Days 12 (Base 50)    
Moisture  
Dew Point 57 °F    
Average Humidity 83    
Maximum Humidity 100    
Minimum Humidity 65    
Precipitation  
Precipitation 0.04 in - - ()
Sea Level Pressure  
Sea Level Pressure 29.71 in    
Wind  
Wind Speed 3 mph (NW)    
Max Wind Speed 15 mph    
Max Gust Speed 28 mph    
Averages and records for this station are not official NWS values.
T = Trace of Precipitation, MM = Missing Value Source: NWS Daily Summary

Daily Weather History Graph

Daily Weather History Graph

Search for Another Location

Airport or City:

Trip Planner

Search our weather history database for the weather conditions in past years. The results will help you decide how hot, cold, wet, or windy it might be!

Date:

Astronomy

Jul. 24, 2013 Rise Set
Actual Time 5:13 AM EDT 8:15 PM EDT
Civil Twilight 4:38 AM EDT 8:50 PM EDT
Nautical Twilight 3:53 AM EDT 9:35 PM EDT
Astronomical Twilight 2:58 AM EDT 10:29 PM EDT
Moon 9:07 PM EDT 7:39 AM EDT
Length of Visible Light 16h 12m
Length of Day
15h 01m
Waning Gibbous, 95% of the Moon is Illuminated
Jul 24
Waning Gibbous
Jul 29
Last Quarter
Aug 6
New
Aug 14
First Quarter
Aug 20
Full

Hourly Weather History & Observations

Time (EDT) Temp. Dew Point Humidity Pressure Visibility Wind Dir Wind Speed Gust Speed Precip Events Conditions
12:56 AM 61.0 °F 59.0 °F 93% 29.56 in - Calm Calm - N/A   Unknown
1:56 AM 60.1 °F 59.0 °F 96% 29.56 in - Calm Calm - N/A   Unknown
2:56 AM 62.1 °F 61.0 °F 96% 29.55 in - Calm Calm - N/A   Unknown
3:56 AM 61.0 °F 60.1 °F 97% 29.57 in - Calm Calm - N/A   Unknown
4:56 AM 60.1 °F 59.0 °F 96% 29.57 in - Calm Calm - N/A   Unknown
5:56 AM 60.1 °F 60.1 °F 100% 29.57 in - Calm Calm - N/A   Unknown
6:56 AM 63.0 °F 62.1 °F 97% 29.58 in - Calm Calm - N/A   Unknown
7:56 AM 66.0 °F 63.0 °F 90% 29.59 in - Calm Calm - N/A   Unknown
8:56 AM 68.0 °F 64.0 °F 87% 29.59 in - Calm Calm - N/A   Unknown
9:56 AM 71.1 °F 64.9 °F 81% 29.61 in - Calm Calm - N/A   Unknown
10:56 AM 70.0 °F 64.0 °F 81% 29.65 in - Calm Calm - N/A   Unknown
11:56 AM 69.1 °F 62.1 °F 78% 29.66 in - NW 9.2 mph 17.3 mph N/A   Unknown
12:56 PM 66.0 °F 63.0 °F 90% 29.69 in - Variable 5.8 mph - 0.04 in   Unknown
1:56 PM 68.0 °F 61.0 °F 78% 29.71 in - Variable 3.5 mph - N/A   Unknown
2:56 PM 66.0 °F 57.0 °F 73% 29.73 in - Variable 6.9 mph - N/A   Unknown
3:56 PM 66.9 °F 55.0 °F 66% 29.74 in - NW 10.4 mph 21.9 mph N/A   Unknown
4:56 PM 64.0 °F 52.0 °F 65% 29.78 in - NW 10.4 mph 20.7 mph N/A   Unknown
5:56 PM 60.1 °F 50.0 °F 69% 29.82 in - NW 13.8 mph 27.6 mph N/A   Unknown
6:56 PM 57.9 °F 48.9 °F 72% 29.86 in - Variable 4.6 mph - N/A   Unknown
7:56 PM 55.9 °F 46.9 °F 72% 29.89 in - NW 10.4 mph 20.7 mph N/A   Unknown
8:56 PM 54.0 °F 46.9 °F 77% 29.92 in - Variable 6.9 mph - N/A   Unknown
9:56 PM 54.0 °F 46.9 °F 77% 29.95 in - NW 8.1 mph - N/A   Unknown
10:56 PM 53.1 °F 46.0 °F 77% 29.96 in - NW 8.1 mph 19.6 mph N/A   Unknown
11:56 PM 53.1 °F 45.0 °F 74% 29.99 in - NW 15.0 mph 24.2 mph N/A   Unknown